Location: Peebles
(55.6412°N, 3.1714°W)
Time: 22:44:43
(UTC+00:00)

deb Agena D - Pass Details

Date: 24 September 2023
Orbit: 794 x 979 km, 99.8° (Epoch: 28 November)

Event Time Altitude Azimuth Distance (km) Brightness Sun altitude
Rises 01:08:02 0° 19° (NNE) 3,696 10.5 -34.6°
Reaches altitude 10° 01:10:34 10° 22° (NNE) 2,745 9.6 -34.6°
Enters shadow 01:15:05 47° 47° (NE) 1,275 7.2 -34.6°
